Regional Weather Roundup
Issued by NWS

Home | Current Version | Previous Version | Graphics & Text | Print | Product List | Glossary On
Versions: 1 2 3 4 5 6 7 8 9 10 11 12 13 14 15 16 17 18 19 20 21 22 23 24 25 26 27 28 29 30 31 32 33 34 35 36 37 38 39 40 41 42 43 44 45 46 47 48 49 50
000
ASUS43 KDMX 251204
RWRIA

WEATHER ROUNDUP FOR IOWA
NATIONAL WEATHER SERVICE DES MOINES IA
  ISSUED BY NWS QUAD CITIES IA IL
600 AM CST SUN JAN 25 2015

NOTE: "FAIR" INDICATES FEW OR NO CLOUDS BELOW 12,000 FEET WITH NO
SIGNIFICANT WEATHER AND/OR OBSTRUCTIONS TO VISIBILITY.

* - THESE STATIONS ARE NOT NWS STATIONS...THUS NOT UNDER NWS
QUALITY CONTROL.  THEY ALSO DO NOT REPORT WEATHER SUCH
AS PRECIPITATION OR FOG.

IAZ001>003-012>014-020>022-031>034-043>046-251300-
   NORTHWEST IOWA

CITY           SKY/WX    TMP DP  RH WIND       PRES   REMARKS
CARROLL *      LGT RAIN  34  34 100 N20       29.69R WCI  22
CHEROKEE *     DRIZZLE   33  33 100 N14G21    29.76R WCI  24
6HR MIN TEMP:  33; 6HR MAX TEMP:  37; 6HR PCP:  0.01;

DENNISON *     FLURRIES  34  34 100 N20G25    29.70R WCI  22
LE MARS *      CLOUDY    34  34 100 N15G22    29.81R WCI  24
ORANGE CITY *  LGT RAIN  36  32  87 N12G17    29.80R WCI  27
SHELDON *      LGT SNOW  34  34 100 N16       29.79R WCI  23
SIOUX CITY     MIX PCPN  35  32  88 N17       29.80R WCI  25
6HR MIN TEMP:  34; 6HR MAX TEMP:  41; 6HR PCP:  0.06;

SPENCER        LGT SNOW  34  31  88 N20       29.77R FOG     WCI  23
6HR MIN TEMP:  34; 6HR MAX TEMP:  35; 6HR PCP:  0.02;

STORM LAKE *   LGT RAIN  34  32  93 N21G26    29.73R WCI  22
$$

IAZ055>058-069>071-079>083-090>094-251300-
   SOUTHWEST IOWA

CITY           SKY/WX    TMP DP  RH WIND       PRES   REMARKS
ATLANTIC *     LGT SNOW  34  34 100 NW16      29.68R WCI  23
AUDUBON *      MIX PCPN  34  30  86 N15G22    29.68R WCI  24
CLARINDA *     CLOUDY    37  36  93 N23G35    29.68R WCI  26
COUNCIL BLFS * CLOUDY    34  34 100 N20G29    29.71R WCI  22
CRESTON *      LGT SNOW  34  34 100 NW17G23   29.63R WCI  23
HARLAN *       FLURRIES  34  34 100 NW23G29   29.73R WCI  22
LAMONI         LGT RAIN  40  38  93 NW15      29.57R FOG     WCI  32
6HR MIN TEMP:  40; 6HR MAX TEMP:  43; 6HR PCP:  0.01;

RED OAK *      CLOUDY    36  34  93 NW15G25   29.69R WCI  26
SHENANDOAH *   MIX PCPN  36  34  93 NW17G29   29.71R WCI  25
$$

IAZ047>049-059>061-072>074-084-251300-
   CENTRAL IOWA

CITY           SKY/WX    TMP DP  RH WIND       PRES   REMARKS
AMES           CLOUDY    35  33  92 N10       29.64R WCI  27
6HR MIN TEMP:  35; 6HR MAX TEMP:  39; 6HR PCP:  0.06;

ANKENY *       CLOUDY    37  36  93 N13       29.62R WCI  29
BOONE *        MIX PCPN  34  34 100 N14       29.63R WCI  24
CHARITON *     RAIN      39  39 100 N12       29.57R WCI  32
DES MOINES     CLOUDY    38  34  85 N10       29.62R WCI  31
6HR MIN TEMP:  38; 6HR MAX TEMP:  42; 6HR PCP:  0.05;

GRINNELL *     LGT RAIN  36  34  94 N8        29.59R WCI  29
6HR MIN TEMP:  36; 6HR MAX TEMP:  40; 6HR PCP:  0.11;

KNOXVILLE *    CLOUDY    37  37 100 N10       29.57R WCI  30
MARSHALLTOWN   LGT RAIN  35  33  92 NE16      29.62R WCI  25
6HR MIN TEMP:  35; 6HR MAX TEMP:  37; 6HR PCP:  0.20;

NEWTON *       CLOUDY    36  36 100 N13       29.60R WCI  27
PELLA *        CLOUDY    37  37  98 N7        29.60R WCI  32
6HR MIN TEMP:  37; 6HR MAX TEMP:  41; 6HR PCP:  0.09;

PERRY *        LGT RAIN  35  35 100 N14       29.65R WCI  25
6HR MIN TEMP:  34; 6HR MAX TEMP:  40;

$$

IAZ004>006-015-016-023>025-035-036-251300-
   NORTH CENTRAL IOWA

CITY           SKY/WX    TMP DP  RH WIND       PRES   REMARKS
ALGONA *       MIX PCPN  34  34 100 NE18G28   29.74R WCI  23
CLARION *      LGT SNOW  34  34 100 NE20      29.69R WCI  22
ESTHERVILLE    LGT SNOW  32  31  96 N17G25    29.77R FOG     WCI  21
6HR MIN TEMP:  32; 6HR MAX TEMP:  32; 6HR PCP:  0.02;

FORT DODGE *   CLOUDY    34  30  86 N10       29.70R WCI  26
6HR MIN TEMP:  34; 6HR MAX TEMP:  37;

MASON CITY     LGT SNOW  33  31  92 NE17G26   29.73R FOG     WCI  22
6HR MIN TEMP:  33; 6HR MAX TEMP:  34; 6HR PCP:  0.02;

WEBSTER CITY * LGT SNOW  34  34 100 N14       29.66R WCI  24
IOWA FALLS *   LGT SNOW  33  32  96 N12       29.67R WCI  24
6HR MIN TEMP:  33; 6HR MAX TEMP:  36; 6HR PCP:  0.05;

$$

IAZ007>011-017>019-026>030-037>042-050>054-066-251300-
   NORTHEAST IOWA

CITY           SKY/WX    TMP DP  RH WIND       PRES   REMARKS
CEDAR RAPIDS   LGT RAIN  34  33  96 NE14      29.61R FOG     WCI  25
6HR MIN TEMP:  34; 6HR MAX TEMP:  36; 6HR PCP:  0.05;

CHARLES CITY * LGT SNOW  34  34 100 NE15G23   29.71R WCI  24
CLINTON *      CLOUDY    34  30  86 E18G25    29.68R WCI  23
6HR MIN TEMP:  32; 6HR MAX TEMP:  34;

DECORAH *      LGT RAIN  32  30  93 NE13G22   29.73R WCI  22
DUBUQUE        CLOUDY    31  28  89 NE21G28   29.68R WCI  18
6HR MIN TEMP:  31; 6HR MAX TEMP:  35;

MONTICELLO *   MIX PCPN  34  34 100 E14G23    29.66R WCI  24
OELWEIN *      MIX PCPN  34  32  93 NE18G25   29.68R WCI  23
WATERLOO       LGT SNOW  33  32  96 NE14      29.67R FOG     WCI  23
6HR MIN TEMP:  31; 6HR MAX TEMP:  35; 6HR PCP: TRACE;

$$

IAZ064-065-067-068-078-251300-
   EAST CENTRAL IOWA

CITY           SKY/WX    TMP DP  RH WIND       PRES   REMARKS
DAVENPORT      LGT SNOW  34  30  86 E21       29.64R FOG     WCI  22
6HR MIN TEMP:  33; 6HR MAX TEMP:  36; 6HR PCP:  0.01;

IOWA CITY      LGT RAIN  35  33  92 NE13      29.63R FOG     WCI  26
6HR MIN TEMP:  33; 6HR MAX TEMP:  36; 6HR PCP:  0.13;

MT. PLEASANT * LGT RAIN  37  37 100 N7        29.58R WCI  31
6HR MIN TEMP:  37; 6HR MAX TEMP:  40; 6HR PCP:  0.05;

MUSCATINE *    MIX PCPN  36  34  93 NE10      29.61R WCI  28
QUAD CITIES    LGT RAIN  35  32  88 NE15      29.62R FOG     WCI  25
6HR MIN TEMP:  31; 6HR MAX TEMP:  35; 6HR PCP:  0.03;

$$

IAZ062-063-075>077-085>089-095>099-251300-
   SOUTHEAST IOWA

CITY           SKY/WX    TMP DP  RH WIND       PRES   REMARKS
BURLINGTON     LGT RAIN  39  39 100 CALM      29.57R FOG
6HR MIN TEMP:  38; 6HR MAX TEMP:  41; 6HR PCP:  0.09;

FAIRFIELD *    LGT RAIN  39  37  93 N7        29.58R WCI  34
FORT MADISON * LGT RAIN  41  39  93 CALM      29.58R
KEOKUK *       LGT RAIN  39  39 100 CALM      29.56S
OTTUMWA        LGT RAIN  38  38 100 E6        29.56R FOG     WCI  33
6HR MIN TEMP:  37; 6HR MAX TEMP:  40; 6HR PCP:  0.22;

WASHINGTON *   LGT RAIN  37  37 100 NE9       29.59R WCI  31
$$

ABBREVIATIONS USED IN REMARKS
   TC - TEMPERATURES IN CELSIUS
  WCI - WIND CHILL INDEX
   HX - HEAT INDEX
  VSB - VISIBILITY
$$


USA.gov is the U.S. government's official web portal to all federal, state and local government web resources and services.